#timestamp,LO_Frequency,Hit,StdDev 
1587340815.8,286046999.6,N
1587340835.6,286046999.1,N
1587340855.5,286047000.8,N
1587340875.3,286047002.7,N
1587340895.1,286047002.6,N
1587340915.9,286047002.0,N
1587340935.7,286047002.2,N
1587340955.6,286047000.3,N
1587340975.4,286047000.9,N
1587340995.2,286047001.1,N
1587341015.1,286047002.7,N
1587341016.0,286047002.7,N
1587341035.8,286047003.5,N
1587341055.7,286047005.5,N
1587341075.5,286047003.1,N
1587341095.3,286047003.2,N
1587341115.2,286047003.2,N
1587341135.0,286047003.1,N
1587341135.9,286047003.1,N
1587341155.8,286047005.1,N
1587341175.6,286047003.4,N
1587341195.4,286047003.4,N
1587341215.3,286047003.0,N
1587341235.1,286047007.1,Y
1587341255.9,286047001.8,P
1587341275.7,286047001.4,P
1587341295.5,286047004.4,P
1587341315.4,286047002.0,N
1587341335.2,286047001.3,N
1587341355.0,286047004.1,Y
1587341356.0,286047004.1,P
1587341375.8,286046998.7,N
1587341395.6,286046998.9,N
1587341415.5,286046999.0,N
1587341435.3,286046998.8,N
1587341455.1,286046999.1,N
1587341475.9,286046999.6,N
1587341495.7,286046999.0,N
1587341515.5,286047001.2,N
1587341535.4,286046999.3,N
1587341555.2,286046997.3,N
1587341575.1,286047000.7,N
1587341576.0,286047000.7,N
1587341595.8,286047001.2,N
1587341615.6,286047002.7,N
1587341635.5,286046999.9,N
1587341655.3,286046998.1,N
1587341675.2,286046998.7,N
1587341695.9,286047001.0,N
1587341715.7,286047002.5,N
1587341735.6,286047004.3,N
1587341755.4,286047001.5,N
1587341775.2,286047002.1,N
1587341795.1,286047004.0,N
1587341796.0,286047004.0,N
1587341815.8,286047002.5,N
1587341835.7,286046998.9,N
1587341855.5,286046996.9,N
1587341875.3,286046997.4,N
1587341895.2,286046999.5,N
1587341915.0,286046999.5,N
1587341915.9,286046999.5,N
1587341935.8,286046998.9,N
1587341955.6,286046999.6,N
1587341975.4,286046998.3,N
1587341995.3,286047001.0,N
1587342015.1,286047000.9,N
1587342035.8,286046998.4,N
1587342055.7,286047000.7,N
1587342075.5,286046999.0,N
1587342095.4,286046996.9,N
1587342115.2,286046996.5,N
1587342135.0,286046996.5,N
1587342135.9,286046996.5,N
1587342155.8,286046998.8,N
1587342175.6,286047000.3,N
1587342195.5,286047000.9,N
1587342215.3,286046998.8,N
1587342235.1,286046999.4,N
1587342255.9,286046996.7,N
1587342275.7,286046999.5,N
1587342295.5,286046997.6,N
1587342315.4,286046997.2,N
1587342335.2,286046998.8,N
1587342355.1,286046998.9,N
1587342356.0,286046998.9,N
1587342375.8,286046996.5,N
1587342395.6,286047000.7,N
1587342415.5,286046998.6,N
1587342435.3,286046998.8,N
1587342455.2,286046998.4,N
1587342475.9,286046999.1,N
1587342495.7,286046997.5,N
1587342515.6,286046998.1,N
1587342535.4,286047000.2,N
1587342555.2,286046998.7,N
1587342575.1,286046996.9,N
1587342576.0,286046996.9,N
1587342595.8,286046999.3,N
1587342615.7,286046998.2,N
1587342635.5,286046998.8,N
1587342655.3,286046999.3,N
1587342675.2,286046997.7,N
1587342695.0,286046998.6,N
1587342695.9,286046998.6,N
1587342715.8,286046998.8,N
1587342735.6,286046996.9,N
1587342755.4,286046997.4,N
1587342775.3,286046999.1,N
1587342795.1,286046996.7,Y
1587342815.8,286047000.5,P
1587342835.7,286047002.8,N
1587342855.5,286047000.0,N
1587342875.4,286047000.6,N
1587342895.2,286046998.3,N
1587342915.0,286046996.7,N
1587342915.9,286046996.7,N
1587342935.8,286046997.4,N
1587342955.6,286046995.4,N
1587342975.5,286046995.8,N
1587342995.3,286046995.5,N
1587343015.1,286046994.9,N
1587343035.9,286046995.5,N
1587343055.7,286046997.2,N
1587343075.5,286046996.3,N
1587343095.4,286046996.1,N
1587343145.2,286046993.3,E
1587343155.2,286046999.6,N
1587343175.9,286047002.2,P
1587343195.7,286047002.1,N
1587343215.6,286047000.0,N
1587343235.4,286047002.6,N
1587343255.3,286047003.6,N
1587343275.1,286047001.4,N
1587343295.8,286047001.7,N
1587343315.7,286047003.9,Y
1587343335.5,286047000.5,P
1587343355.4,286047000.3,N
1587343375.2,286047000.9,N
1587343395.0,286047000.1,N
1587343395.9,286047000.1,N
1587343415.8,286047000.0,N
1587343435.6,286047000.4,N
1587343455.5,286047000.1,N
1587343475.3,286047000.2,N
1587343495.1,286047001.1,N
1587343515.9,286046998.8,N
1587343535.7,286047000.7,N
1587343555.6,286046998.1,N
1587343575.4,286047000.4,N
1587343595.2,286047000.5,N
1587343615.1,286047000.4,N
1587343616.0,286047000.4,N
1587343635.8,286047000.2,N
1587343655.7,286046999.9,N
1587343675.5,286047001.2,N
1587343695.3,286047000.8,N
1587343715.2,286047000.3,N
1587343735.0,286047000.5,N
1587343735.9,286047000.5,N
1587343755.8,286047000.2,N
1587343775.6,286047001.0,N
1587343795.4,286047000.4,N
1587343815.3,286047000.6,N
1587343835.1,286047002.8,Y
1587343855.9,286047000.2,P
1587343875.7,286047000.4,P
1587343895.5,286047000.7,P
1587343915.4,286047002.3,Y
1587343935.2,286047000.5,P
1587343955.0,286047000.4,P
1587343955.9,286047000.4,P
1587343975.8,286047002.8,Y
1587343995.6,286047001.5,P
1587344015.5,286047000.5,N
1587344035.3,286047002.2,P
1587344055.1,286047000.0,N
1587344075.9,286047000.2,N
1587344095.7,286047002.6,Y
1587344115.6,286047001.9,P
1587344135.4,286047005.6,P
1587344155.2,286047003.0,N
1587344175.1,286047005.9,Y
1587344176.0,286047005.9,P
1587344195.8,286047001.1,N
1587344215.7,286047000.3,N
1587344235.5,286046999.8,N
1587344255.3,286047000.7,N
1587344275.2,286047004.0,N
1587344295.0,286047002.5,N
1587344295.9,286047002.5,N
1587344315.8,286047007.6,Y
1587344335.6,286047004.5,P
1587344355.4,286047002.6,N
1587344375.3,286046999.8,N
1587344395.1,286047001.6,N
